[Date Prev][Date Next][Thread Prev][Thread Next] - [Date Index][Thread Index][Author Index]
2 Line ISS Keps 12-5
- Subject: [sarex] 2 Line ISS Keps 12-5
- From: "Dave Larsen PhD" <doc@xxxxxxxxxxx>
- Date: Wed, 5 Dec 2001 03:32:51 -0800
ISS
1 25544U 98067A 01339.21511163 .00068349 00000-0 72792-3 0 7983
2 25544 51.6390 308.2533 0010135 57.4121 41.5006 15.63289233173773
----
Via the sarex mailing list at AMSAT.ORG courtesy of AMSAT-NA.
To unsubscribe, send "unsubscribe sarex" to Majordomo@amsat.org
AMSAT Home